Regional Weather Roundup
Issued by NWS

Home | Current Version | Previous Version | Text Only | Print | Product List | Glossary Off
Versions: 1 2 3 4 5 6 7 8 9 10 11 12 13 14 15 16 17 18 19 20 21 22 23 24 25 26 27 28 29 30 31 32 33 34 35 36 37 38 39 40 41 42 43 44 45 46 47 48 49 50

871
ASUS43 KMKX 222100
RWRWI

WISCONSIN REGIONAL WEATHER ROUNDUP
NATIONAL WEATHER SERVICE MILWAUKEE/SULLIVAN WI
400 PM CDT MON MAY 22 2017

NOTE: "FAIR" INDICATES FEW OR NO CLOUDS BELOW 12,000 FEET WITH NO
SIGNIFICANT WEATHER AND/OR OBSTRUCTIONS TO VISIBILITY.

WIZ001-002-006>008-014>016-023>028-222200-
NORTHWEST WISCONSIN

CITY           SKY/WX    TMP DP  RH WIND       PRES   REMARKS
SUPERIOR ARPT  NOT AVBL
ASHLAND        CLOUDY    56  47  71 SW13      29.80R
HAYWARD        CLOUDY    55  42  61 VRB6      29.81S
SIREN          CLOUDY    57  41  55 NW9       29.82S
CUMBERLAND     CLOUDY    57  41  54 W15       29.82S
RICE LAKE      MOSUNNY   60  42  52 W10G20    29.83F
CHETEK         PTSUNNY   59  44  57 W8        29.82S
LADYSMITH      PTSUNNY   58  43  57 W13       29.83S
EAU CLAIRE     MOSUNNY   66  43  43 W9        29.80F
MENOMONIE      MOSUNNY   64  43  46 W14       29.81F
NEW RICHMOND   MOSUNNY   63  42  45 NW9       29.82S
OSCEOLA        CLOUDY    62  45  52 W8        29.85R
$$

WIZ003>005-009-010-017-018-222200-
NORTH CENTRAL WISCONSIN

CITY           SKY/WX    TMP DP  RH WIND       PRES   REMARKS
MANITOWISH WTR CLOUDY    54  42  64 W13G22    29.79S
ARBOR VITAE    CLOUDY    52  44  73 W9        29.80R
WOODRUFF       CLOUDY    52  44  73 W9        29.80R
RHINELANDER    LGT RAIN  54  42  64 W15G26    29.81R
EAGLE RIVER    CLOUDY    52  41  64 W14G20    29.80R
LAND O LAKES   CLOUDY    53  41  62 SW7       29.80S
PHILLIPS       PTSUNNY   56  43  60 W7        29.80S
TOMAHAWK       CLOUDY    54  44  69 W5        29.81S
MEDFORD        CLOUDY    58  42  56 W15       29.81R
MERRILL        CLOUDY    59  42  53 W20G26    29.80S
$$

WIZ029-030-035-036-043>047-222200-
CENTRAL WISCONSIN

CITY           SKY/WX    TMP DP  RH WIND       PRES   REMARKS
WAUSAU         PTSUNNY   63  42  46 W15G24    29.78F
MOSINEE        NOT AVBL
MARSHFIELD     MOSUNNY   66  43  43 W12G22    29.80S
STEVENS POINT  PTSUNNY   65  42  43 W10G18    29.81S
WAUPACA        PTSUNNY   70  41  34 SW14G28   29.80F
WAUTOMA        MOSUNNY   70  46  42 SW15G22   29.81F
WISC RAPIDS    MOSUNNY   69  44  40 W12       29.81F
CAMP DOUGLAS   NOT AVBL
$$

WIZ011>013-019>022-031-037>040-048>050-222200-
NORTHEAST WISCONSIN

CITY           SKY/WX    TMP DP  RH WIND       PRES   REMARKS
ANTIGO         CLOUDY    58  44  59 W15G22    29.80S
SHAWANO        CLOUDY    67  43  41 W12G20    29.80S
OCONTO         MOSUNNY   66  43  43 W9G18     29.79F
STURGEON BAY   PTSUNNY   67  46  47 S14G20    29.81F
GREEN BAY      PTSUNNY   68  49  50 SW9G20    29.80F
MANITOWOC      NOT AVBL
APPLETON       PTSUNNY   66  43  42 SW14G23   29.80F
CLINTONVILLE   PTSUNNY   68  39  34 W14G22    29.80F
OSHKOSH        MOSUNNY   65  45  48 SW13G18   29.82F
$$

WIZ032>034-041-042-053>061-222200-
SOUTHWEST WISCONSIN

CITY           SKY/WX    TMP DP  RH WIND       PRES   REMARKS
LA CROSSE      PTSUNNY   72  49  44 S13       29.81S
SPARTA         MOSUNNY   69  47  45 W9G16     29.83S
VIROQUA        MOSUNNY   67  50  53 SW13G20   29.85S
BOSCOBEL       CLOUDY    70  53  54 W8        29.85F
PRAIRIE DU CHI CLOUDY    67  51  56 S5        29.85F
PLATTEVILLE    PTSUNNY   67  56  68 S10       29.87F
$$

WIZ056-057-062-063-064-067-068-222200-
SOUTH CENTRAL WISCONSIN

CITY           SKY/WX    TMP DP  RH WIND       PRES   REMARKS
REEDSBURG      CLOUDY    64  50  59 SW13      29.85F
BARABOO/DELLS  CLOUDY    65  47  53 SW14      29.86S
LONE ROCK      CLOUDY    66  51  58 SW12G18   29.85F
MINERAL POINT  MOSUNNY   64  54  68 SW13      29.88R
MADISON        CLOUDY    63  51  65 S7        29.86F
MIDDLETON      CLOUDY    64  51  64 SW7       29.87F
WATERTOWN      CLOUDY    59  53  81 S10       29.88F
MONROE         MOSUNNY   64  52  63 S10       29.88F
JANESVILLE     PTSUNNY   68  52  56 S7        29.88F
$$

WIZ051-052-058>065-066-070>072-222200-
SOUTHEAST WISCONSIN

CITY           SKY/WX    TMP DP  RH WIND       PRES   REMARKS
MILWAUKEE      CLOUDY    65  48  54 W8        29.90F
WAUKESHA       NOT AVBL
MILWAUKEE/TIMM NOT AVBL
RACINE         CLOUDY    66  47  50 SW5       29.91F
KENOSHA        CLOUDY    67  49  52 W6        29.90F
FOND DU LAC    SUNNY     66  48  52 SW14G24   29.85S
SHEBOYGAN      SUNNY     67  51  56 SW22G32   29.85S
WEST BEND      MOSUNNY   59  54  82 SW13      29.89S
JUNEAU         PTSUNNY   60  51  71 S12       29.90S
$$

LSZ147-162-222200-
LAKE SUPERIOR

STATION/POSITION TIME  TEMP    WIND        PRES    WAVE
                       AIR SEA DIR/SP/G            HT/PER
                 (UTC) (F)     (DEG/KT/KT) (MB)    (FT/S)
W MID LAKE BUOY  1950   42 37  240/ 12/ 14 1008.0R   2/ 3
DEVILS ISLAND    2000   46     240/ 18/ 20 1008.4R
SAXON HARBOR     2030   54     250/  7/ 10 1009.1R
$$

LMZ867-665-643>646-222200-
LAKE MICHIGAN

STATION/POSITION TIME  TEMP    WIND        PRES    WAVE
                       AIR SEA DIR/SP/G            HT/PER
                 (UTC) (F)     (DEG/KT/KT) (MB)    (FT/S)
CHAMBERS ISLAND  2040   61     170/  7/ 15 1008.8F
N MID LAKE BUOY  1950   42 39  190/ 17/ 19 1011.2F   3/ 5
NORTHPORT PIER   2040   54     160/ 10/ 15 1009.5F
KEWAUNEE LAKESHO 2030          170/ 13/ 16 1010.1F
SHEBOYGAN LAKESH 2000   65     230/ 21/ 25 1010.5F
PORT WASHINGTON  2030   61     230/  7/ 11 1012.9F
ATWATER BUOY     2039   58     230/  4/  6 1012.5F
MILWAUKEE LAKESH 2030   62     220/ 14/ 16   N/A
S MID LAKE BUOY  1950   50 45  170/ 12/ 14 1013.9F   1/ 3
KENOSHA   LAKESH 2000   68     230/ 14/ 21 1012.9
$$

TC  - TEMPERATURE IN CELSIUS
VSB - VISIBILITY IN STATUTE MILES
WCI - WIND CHILL INDEX
HX  - HEAT INDEX





USA.gov is the U.S. government's official web portal to all federal, state and local government web resources and services.